Year,Month,Day,Hour,Minute,Value (Times are PST for temperature in C)
2016,11,24,00,00,8.60
2016,11,24,00,01,8.50
2016,11,24,00,02,8.50
2016,11,24,00,03,8.50
2016,11,24,00,04,8.40
2016,11,24,00,05,8.40
2016,11,24,00,06,8.40
2016,11,24,00,07,8.40
2016,11,24,00,08,8.30
2016,11,24,00,09,8.30
2016,11,24,00,10,8.30
2016,11,24,00,11,8.30
2016,11,24,00,12,8.30
2016,11,24,00,13,8.30
2016,11,24,00,14,8.30
2016,11,24,00,15,8.30
2016,11,24,00,16,8.20
2016,11,24,00,17,8.20
2016,11,24,00,18,8.20
2016,11,24,00,19,8.20
2016,11,24,00,20,8.20
2016,11,24,00,21,8.20
2016,11,24,00,22,8.20
2016,11,24,00,23,8.10
2016,11,24,00,24,8.10
2016,11,24,00,25,8.10
2016,11,24,00,26,8.10
2016,11,24,00,27,8.10
2016,11,24,00,28,8.10
2016,11,24,00,29,8.10
2016,11,24,00,30,8.10
2016,11,24,00,31,8.10
2016,11,24,00,32,8.20
2016,11,24,00,33,8.20
2016,11,24,00,34,8.20
2016,11,24,00,35,8.20
2016,11,24,00,36,8.20
2016,11,24,00,37,8.20
2016,11,24,00,38,8.20
2016,11,24,00,39,8.20
2016,11,24,00,40,8.20
2016,11,24,00,41,8.20
2016,11,24,00,42,8.20
2016,11,24,00,43,8.20
2016,11,24,00,44,8.20
2016,11,24,00,45,8.20
2016,11,24,00,46,8.20
2016,11,24,00,47,8.20
2016,11,24,00,48,8.20
2016,11,24,00,49,8.30
2016,11,24,00,50,8.20
2016,11,24,00,51,8.20
2016,11,24,00,52,8.20
2016,11,24,00,53,8.20
2016,11,24,00,54,8.20
2016,11,24,00,55,8.20
2016,11,24,00,56,8.20
2016,11,24,00,57,8.20
2016,11,24,00,58,8.20
2016,11,24,00,59,8.20
2016,11,24,01,00,8.20
2016,11,24,01,01,8.20
2016,11,24,01,02,8.20
2016,11,24,01,03,8.20
2016,11,24,01,04,8.20
2016,11,24,01,05,8.20
2016,11,24,01,06,8.30
2016,11,24,01,07,8.30
2016,11,24,01,08,8.30
2016,11,24,01,09,8.30
2016,11,24,01,10,8.30
2016,11,24,01,11,8.30
2016,11,24,01,12,8.30
2016,11,24,01,13,8.30
2016,11,24,01,14,8.30
2016,11,24,01,15,8.30
2016,11,24,01,16,8.30
2016,11,24,01,17,8.30
2016,11,24,01,18,8.30
2016,11,24,01,19,8.40
2016,11,24,01,20,8.40
2016,11,24,01,21,8.40
2016,11,24,01,22,8.40
2016,11,24,01,23,8.40
2016,11,24,01,24,8.40
2016,11,24,01,25,8.40
2016,11,24,01,26,8.40
2016,11,24,01,27,8.50
2016,11,24,01,28,8.50
2016,11,24,01,29,8.50
2016,11,24,01,30,8.50
2016,11,24,01,31,8.50
2016,11,24,01,32,8.50
2016,11,24,01,33,8.50
2016,11,24,01,34,8.50
2016,11,24,01,35,8.50
2016,11,24,01,36,8.50
2016,11,24,01,37,8.60
2016,11,24,01,38,8.60
2016,11,24,01,39,8.60
2016,11,24,01,40,8.60
2016,11,24,01,41,8.60
2016,11,24,01,42,8.70
2016,11,24,01,43,8.70
2016,11,24,01,44,8.70
2016,11,24,01,45,8.80
2016,11,24,01,46,8.80
2016,11,24,01,47,8.80
2016,11,24,01,48,8.80
2016,11,24,01,49,8.60
2016,11,24,01,50,8.40
2016,11,24,01,51,8.20
2016,11,24,01,52,8.10
2016,11,24,01,53,7.90
2016,11,24,01,54,7.80
2016,11,24,01,55,7.80
2016,11,24,01,56,7.70
2016,11,24,01,57,7.70
2016,11,24,01,58,7.70
2016,11,24,01,59,7.70
2016,11,24,02,00,7.70
2016,11,24,02,01,7.70
2016,11,24,02,02,7.70
2016,11,24,02,03,7.70
2016,11,24,02,04,7.70
2016,11,24,02,05,7.70
2016,11,24,02,06,7.70
2016,11,24,02,07,7.70
2016,11,24,02,08,7.70
2016,11,24,02,09,7.80
2016,11,24,02,10,7.80
2016,11,24,02,11,7.80
2016,11,24,02,12,7.80
2016,11,24,02,13,7.80
2016,11,24,02,14,7.70
2016,11,24,02,15,7.70
2016,11,24,02,16,7.70
2016,11,24,02,17,7.70
2016,11,24,02,18,7.80
2016,11,24,02,19,7.80
2016,11,24,02,20,7.80
2016,11,24,02,21,7.80
2016,11,24,02,22,7.80
2016,11,24,02,23,7.80
2016,11,24,02,24,7.90
2016,11,24,02,25,7.90
2016,11,24,02,26,7.90
2016,11,24,02,27,7.90
2016,11,24,02,28,7.90
2016,11,24,02,29,7.90
2016,11,24,02,30,7.90
2016,11,24,02,31,7.90
2016,11,24,02,32,7.90
2016,11,24,02,33,7.90
2016,11,24,02,34,7.90
2016,11,24,02,35,8.00
2016,11,24,02,36,8.00
2016,11,24,02,37,8.00
2016,11,24,02,38,8.00
2016,11,24,02,39,8.10
2016,11,24,02,40,8.10
2016,11,24,02,41,8.10
2016,11,24,02,42,8.10
2016,11,24,02,43,8.10
2016,11,24,02,44,8.20
2016,11,24,02,45,8.20
2016,11,24,02,46,8.20
2016,11,24,02,47,8.20
2016,11,24,02,48,8.20
2016,11,24,02,49,8.30
2016,11,24,02,50,8.30
2016,11,24,02,51,8.30
2016,11,24,02,52,8.30
2016,11,24,02,53,8.30
2016,11,24,02,54,8.40
2016,11,24,02,55,8.40
2016,11,24,02,56,8.40
2016,11,24,02,57,8.40
2016,11,24,02,58,8.40
2016,11,24,02,59,8.40
2016,11,24,03,00,8.40
2016,11,24,03,01,8.40
2016,11,24,03,02,8.40
2016,11,24,03,03,8.40
2016,11,24,03,04,8.50
2016,11,24,03,05,8.50
2016,11,24,03,06,8.50
2016,11,24,03,07,8.50
2016,11,24,03,08,8.50
2016,11,24,03,09,8.50
2016,11,24,03,10,8.50
2016,11,24,03,11,8.50
2016,11,24,03,12,8.50
2016,11,24,03,13,8.50
2016,11,24,03,14,8.50
2016,11,24,03,15,8.50
2016,11,24,03,16,8.50
2016,11,24,03,17,8.60
2016,11,24,03,18,8.60
2016,11,24,03,19,8.60
2016,11,24,03,20,8.60
2016,11,24,03,21,8.60
2016,11,24,03,22,8.60
2016,11,24,03,23,8.60
2016,11,24,03,24,8.60
2016,11,24,03,25,8.60
2016,11,24,03,26,8.60
2016,11,24,03,27,8.60
2016,11,24,03,28,8.70
2016,11,24,03,29,8.70
2016,11,24,03,30,8.70
2016,11,24,03,31,8.70
2016,11,24,03,32,8.70
2016,11,24,03,33,8.70
2016,11,24,03,34,8.70
2016,11,24,03,35,8.70
2016,11,24,03,36,8.70
2016,11,24,03,37,8.70
2016,11,24,03,38,8.70
2016,11,24,03,39,8.70
2016,11,24,03,40,8.60
2016,11,24,03,41,8.50
2016,11,24,03,42,8.50
2016,11,24,03,43,8.40
2016,11,24,03,44,8.40
2016,11,24,03,45,8.30
2016,11,24,03,46,8.30
2016,11,24,03,47,8.30
2016,11,24,03,48,8.30
2016,11,24,03,49,8.30
2016,11,24,03,50,8.30
2016,11,24,03,51,8.20
2016,11,24,03,52,8.20
2016,11,24,03,53,8.20
2016,11,24,03,54,8.10
2016,11,24,03,55,8.10
2016,11,24,03,56,8.10
2016,11,24,03,57,8.00
2016,11,24,03,58,8.00
2016,11,24,03,59,8.00
2016,11,24,04,00,7.90
2016,11,24,04,01,7.90
2016,11,24,04,02,7.90
2016,11,24,04,03,7.80
2016,11,24,04,04,7.80
2016,11,24,04,05,7.80
2016,11,24,04,06,7.70
2016,11,24,04,07,7.70
2016,11,24,04,08,7.70
2016,11,24,04,09,7.70
2016,11,24,04,10,7.70
2016,11,24,04,11,7.60
2016,11,24,04,12,7.60
2016,11,24,04,13,7.60
2016,11,24,04,14,7.60
2016,11,24,04,15,7.60
2016,11,24,04,16,7.60
2016,11,24,04,17,7.60
2016,11,24,04,18,7.50
2016,11,24,04,19,7.50
2016,11,24,04,20,7.50
2016,11,24,04,21,7.50
2016,11,24,04,22,7.50
2016,11,24,04,23,7.50
2016,11,24,04,24,7.50
2016,11,24,04,25,7.50
2016,11,24,04,26,7.50
2016,11,24,04,27,7.50
2016,11,24,04,28,7.50
2016,11,24,04,29,7.40
2016,11,24,04,30,7.40
2016,11,24,04,31,7.50
2016,11,24,04,32,7.50
2016,11,24,04,33,7.50
2016,11,24,04,34,7.50
2016,11,24,04,35,7.50
2016,11,24,04,36,7.50
2016,11,24,04,37,7.50
2016,11,24,04,38,7.50
2016,11,24,04,39,7.60
2016,11,24,04,40,7.60
2016,11,24,04,41,7.60
2016,11,24,04,42,7.60
2016,11,24,04,43,7.70
2016,11,24,04,44,7.70
2016,11,24,04,45,7.70
2016,11,24,04,46,7.80
2016,11,24,04,47,7.90
2016,11,24,04,48,7.90
2016,11,24,04,49,8.00
2016,11,24,04,50,8.00
2016,11,24,04,51,8.10
2016,11,24,04,52,8.10
2016,11,24,04,53,8.10
2016,11,24,04,54,8.10
2016,11,24,04,55,8.10
2016,11,24,04,56,8.20
2016,11,24,04,57,8.20
2016,11,24,04,58,8.20
2016,11,24,04,59,8.20
2016,11,24,05,00,8.20
2016,11,24,05,01,8.30
2016,11,24,05,02,8.30
2016,11,24,05,03,8.30
2016,11,24,05,04,8.30
2016,11,24,05,05,8.40
2016,11,24,05,06,8.40
2016,11,24,05,07,8.40
2016,11,24,05,08,8.40
2016,11,24,05,09,8.40
2016,11,24,05,10,8.40
2016,11,24,05,11,8.50
2016,11,24,05,12,8.50
2016,11,24,05,13,8.50
2016,11,24,05,14,8.50
2016,11,24,05,15,8.50
2016,11,24,05,16,8.60
2016,11,24,05,17,8.70
2016,11,24,05,18,8.80
2016,11,24,05,19,8.80
2016,11,24,05,20,8.80
2016,11,24,05,21,8.90
2016,11,24,05,22,8.90
2016,11,24,05,23,9.00
2016,11,24,05,24,9.00
2016,11,24,05,25,9.10
2016,11,24,05,26,9.10
2016,11,24,05,27,9.10
2016,11,24,05,28,9.20
2016,11,24,05,29,9.20
2016,11,24,05,30,9.20
2016,11,24,05,31,9.20
2016,11,24,05,32,9.20
2016,11,24,05,33,9.20
2016,11,24,05,34,9.20
2016,11,24,05,35,9.20
2016,11,24,05,36,9.20
2016,11,24,05,37,9.20
2016,11,24,05,38,9.20
2016,11,24,05,39,9.20
2016,11,24,05,40,9.20
2016,11,24,05,41,9.20
2016,11,24,05,42,9.20
2016,11,24,05,43,9.20
2016,11,24,05,44,9.20
2016,11,24,05,45,9.20
2016,11,24,05,46,9.20
2016,11,24,05,47,9.20
2016,11,24,05,48,9.30
2016,11,24,05,49,9.30
2016,11,24,05,50,9.30
2016,11,24,05,51,9.30
2016,11,24,05,52,9.30
2016,11,24,05,53,9.20
2016,11,24,05,54,9.30
2016,11,24,05,55,9.30
2016,11,24,05,56,9.30
2016,11,24,05,57,9.30
2016,11,24,05,58,9.30
2016,11,24,05,59,9.30
2016,11,24,06,00,9.30
2016,11,24,06,01,9.30
2016,11,24,06,02,9.30
2016,11,24,06,03,9.30
2016,11,24,06,04,9.30
2016,11,24,06,05,9.30
2016,11,24,06,06,9.30
2016,11,24,06,07,9.30
2016,11,24,06,08,9.30
2016,11,24,06,09,9.30
2016,11,24,06,10,9.30
2016,11,24,06,11,9.30
2016,11,24,06,12,9.30
2016,11,24,06,13,9.30
2016,11,24,06,14,9.30
2016,11,24,06,15,9.30
2016,11,24,06,16,9.30
2016,11,24,06,17,9.30
2016,11,24,06,18,9.30
2016,11,24,06,19,9.30
2016,11,24,06,20,9.30
2016,11,24,06,21,9.30
2016,11,24,06,22,9.30
2016,11,24,06,23,9.30
2016,11,24,06,24,9.30
2016,11,24,06,25,9.30
2016,11,24,06,26,9.30
2016,11,24,06,27,9.30
2016,11,24,06,28,9.30
2016,11,24,06,29,9.30
2016,11,24,06,30,9.30
2016,11,24,06,31,9.30
2016,11,24,06,32,9.30
2016,11,24,06,33,9.30
2016,11,24,06,34,9.30
2016,11,24,06,35,9.30
2016,11,24,06,36,9.30
2016,11,24,06,37,9.30
2016,11,24,06,38,9.30
2016,11,24,06,39,9.30
2016,11,24,06,40,9.30
2016,11,24,06,41,9.30
2016,11,24,06,42,9.30
2016,11,24,06,43,9.30
2016,11,24,06,44,9.30
2016,11,24,06,45,9.30
2016,11,24,06,46,9.30
2016,11,24,06,47,9.30
2016,11,24,06,48,9.30
2016,11,24,06,49,9.30
2016,11,24,06,50,9.30
2016,11,24,06,51,9.20
2016,11,24,06,52,9.20
2016,11,24,06,53,9.20
2016,11,24,06,54,9.20
2016,11,24,06,55,9.20
2016,11,24,06,56,9.20
2016,11,24,06,57,9.20
2016,11,24,06,58,9.20
2016,11,24,06,59,9.20
2016,11,24,07,00,9.20
2016,11,24,07,01,9.20
2016,11,24,07,02,9.20
2016,11,24,07,03,9.20
2016,11,24,07,04,9.20
2016,11,24,07,05,9.20
2016,11,24,07,06,9.10
2016,11,24,07,07,9.10
2016,11,24,07,08,9.10
2016,11,24,07,09,9.00
2016,11,24,07,10,9.00
2016,11,24,07,11,9.00
2016,11,24,07,12,8.90
2016,11,24,07,13,8.90
2016,11,24,07,14,8.80
2016,11,24,07,15,8.80
2016,11,24,07,16,8.70
2016,11,24,07,17,8.60
2016,11,24,07,18,8.60
2016,11,24,07,19,8.50
2016,11,24,07,20,8.40
2016,11,24,07,21,8.40
2016,11,24,07,22,8.30
2016,11,24,07,23,8.30
2016,11,24,07,24,8.20
2016,11,24,07,25,8.20
2016,11,24,07,26,8.10
2016,11,24,07,27,8.10
2016,11,24,07,28,8.10
2016,11,24,07,29,8.20
2016,11,24,07,30,8.20
2016,11,24,07,31,8.20
2016,11,24,07,32,8.10
2016,11,24,07,33,8.10
2016,11,24,07,34,8.10
2016,11,24,07,35,8.10
2016,11,24,07,36,8.00
2016,11,24,07,37,8.00
2016,11,24,07,38,8.00
2016,11,24,07,39,8.00
2016,11,24,07,40,8.00
2016,11,24,07,41,7.90
2016,11,24,07,42,7.90
2016,11,24,07,43,7.90
2016,11,24,07,44,7.90
2016,11,24,07,45,7.90
2016,11,24,07,46,7.90
2016,11,24,07,47,7.80
2016,11,24,07,48,7.80
2016,11,24,07,49,7.80
2016,11,24,07,50,7.80
2016,11,24,07,51,7.80
2016,11,24,07,52,7.70
2016,11,24,07,53,7.70
2016,11,24,07,54,7.70
2016,11,24,07,55,7.70
2016,11,24,07,56,7.70
2016,11,24,07,57,7.70
2016,11,24,07,58,7.60
2016,11,24,07,59,7.60
2016,11,24,08,00,7.60
2016,11,24,08,01,7.50
2016,11,24,08,02,7.50
2016,11,24,08,03,7.50
2016,11,24,08,04,7.40
2016,11,24,08,05,7.40
2016,11,24,08,06,7.40
2016,11,24,08,07,7.40
2016,11,24,08,08,7.30
2016,11,24,08,09,7.30
2016,11,24,08,10,7.30
2016,11,24,08,11,7.30
2016,11,24,08,12,7.30
2016,11,24,08,13,7.20
2016,11,24,08,14,7.20
2016,11,24,08,15,7.20
2016,11,24,08,16,7.20
2016,11,24,08,17,7.20
2016,11,24,08,18,7.20
2016,11,24,08,19,7.20
2016,11,24,08,20,7.20
2016,11,24,08,21,7.10
2016,11,24,08,22,7.10
2016,11,24,08,23,7.10
2016,11,24,08,24,7.10
2016,11,24,08,25,7.10
2016,11,24,08,26,7.10
2016,11,24,08,27,7.10
2016,11,24,08,28,7.10
2016,11,24,08,29,7.10
2016,11,24,08,30,7.10
2016,11,24,08,31,7.10
2016,11,24,08,32,7.10
2016,11,24,08,33,7.10
2016,11,24,08,34,7.10
2016,11,24,08,35,7.10
2016,11,24,08,36,7.10
2016,11,24,08,37,7.10
2016,11,24,08,38,7.10
2016,11,24,08,39,7.10
2016,11,24,08,40,7.10
2016,11,24,08,41,7.10
2016,11,24,08,42,7.10
2016,11,24,08,43,7.10
2016,11,24,08,44,7.10
2016,11,24,08,45,7.10
2016,11,24,08,46,7.10
2016,11,24,08,47,7.10
2016,11,24,08,48,7.10
2016,11,24,08,49,7.00
2016,11,24,08,50,7.00
2016,11,24,08,51,7.00
2016,11,24,08,52,7.00
2016,11,24,08,53,6.90
2016,11,24,08,54,6.90
2016,11,24,08,55,6.90
2016,11,24,08,56,6.80
2016,11,24,08,57,6.80
2016,11,24,08,58,6.80
2016,11,24,08,59,6.80
2016,11,24,09,00,6.70
2016,11,24,09,01,6.70
2016,11,24,09,02,6.70
2016,11,24,09,03,6.70
2016,11,24,09,04,6.70
2016,11,24,09,05,6.60
2016,11,24,09,06,6.60
2016,11,24,09,07,6.60
2016,11,24,09,08,6.60
2016,11,24,09,09,6.60
2016,11,24,09,10,6.60
2016,11,24,09,11,6.50
2016,11,24,09,12,6.50
2016,11,24,09,13,6.50
2016,11,24,09,14,6.50
2016,11,24,09,15,6.50
2016,11,24,09,16,6.50
2016,11,24,09,17,6.40
2016,11,24,09,18,6.40
2016,11,24,09,19,6.40
2016,11,24,09,20,6.40
2016,11,24,09,21,6.40
2016,11,24,09,22,6.30
2016,11,24,09,23,6.30
2016,11,24,09,24,6.30
2016,11,24,09,25,6.30
2016,11,24,09,26,6.40
2016,11,24,09,27,6.40
2016,11,24,09,28,6.40
2016,11,24,09,29,6.40
2016,11,24,09,30,6.40
2016,11,24,09,31,6.30
2016,11,24,09,32,6.30
2016,11,24,09,33,6.30
2016,11,24,09,34,6.30
2016,11,24,09,35,6.20
2016,11,24,09,36,6.20
2016,11,24,09,37,6.20
2016,11,24,09,38,6.10
2016,11,24,09,39,6.10
2016,11,24,09,40,6.10
2016,11,24,09,41,6.00
2016,11,24,09,42,6.00
2016,11,24,09,43,5.90
2016,11,24,09,44,5.90
2016,11,24,09,45,5.90
2016,11,24,09,46,5.90
2016,11,24,09,47,5.80
2016,11,24,09,48,5.80
2016,11,24,09,49,5.80
2016,11,24,09,50,5.80
2016,11,24,09,51,5.80
2016,11,24,09,52,5.80
2016,11,24,09,53,5.80
2016,11,24,09,54,5.80
2016,11,24,09,55,5.80
2016,11,24,09,56,5.80
2016,11,24,09,57,5.80
2016,11,24,09,58,5.80
2016,11,24,09,59,5.80
2016,11,24,10,00,5.80
2016,11,24,10,01,5.80
2016,11,24,10,02,5.80
2016,11,24,10,03,5.80
2016,11,24,10,04,5.80
2016,11,24,10,05,5.80
2016,11,24,10,06,5.70
2016,11,24,10,07,5.70
2016,11,24,10,08,5.70
2016,11,24,10,09,5.70
2016,11,24,10,10,5.60
2016,11,24,10,11,5.60
2016,11,24,10,12,5.60
2016,11,24,10,13,5.60
2016,11,24,10,14,5.60
2016,11,24,10,15,5.60
2016,11,24,10,16,5.50
2016,11,24,10,17,5.50
2016,11,24,10,18,5.50
2016,11,24,10,19,5.50
2016,11,24,10,20,5.50
2016,11,24,10,21,5.50
2016,11,24,10,22,5.40
2016,11,24,10,23,5.40
2016,11,24,10,24,5.40
2016,11,24,10,25,5.40
2016,11,24,10,26,5.40
2016,11,24,10,27,5.40
2016,11,24,10,28,5.40
2016,11,24,10,29,5.40
2016,11,24,10,30,5.40
2016,11,24,10,31,5.30
2016,11,24,10,32,5.30
2016,11,24,10,33,5.40
2016,11,24,10,34,5.40
2016,11,24,10,35,5.40
2016,11,24,10,36,5.40
2016,11,24,10,37,5.40
2016,11,24,10,38,5.40
2016,11,24,10,39,5.40
2016,11,24,10,40,5.40
2016,11,24,10,41,5.40
2016,11,24,10,42,5.40
2016,11,24,10,43,5.40
2016,11,24,10,44,5.40
2016,11,24,10,45,5.40
2016,11,24,10,46,5.40
2016,11,24,10,47,5.40
2016,11,24,10,48,5.40
2016,11,24,10,49,5.40
2016,11,24,10,50,5.40
2016,11,24,10,51,5.40
2016,11,24,10,52,5.40
2016,11,24,10,53,5.40
2016,11,24,10,54,5.40
2016,11,24,10,55,5.30
2016,11,24,10,56,5.30
2016,11,24,10,57,5.30
2016,11,24,10,58,5.30
2016,11,24,10,59,5.30
2016,11,24,11,00,5.30
2016,11,24,11,01,5.30
2016,11,24,11,02,5.30
2016,11,24,11,03,5.30
2016,11,24,11,04,5.30
2016,11,24,11,05,5.30
2016,11,24,11,06,5.30
2016,11,24,11,07,5.30
2016,11,24,11,08,5.40
2016,11,24,11,09,5.40
2016,11,24,11,10,5.40
2016,11,24,11,11,5.40
2016,11,24,11,12,5.40
2016,11,24,11,13,5.40
2016,11,24,11,14,5.40
2016,11,24,11,15,5.50
2016,11,24,11,16,5.50
2016,11,24,11,17,5.50
2016,11,24,11,18,5.60
2016,11,24,11,19,5.60
2016,11,24,11,20,5.60
2016,11,24,11,21,5.70
2016,11,24,11,22,5.70
2016,11,24,11,23,5.60
2016,11,24,11,24,5.60
2016,11,24,11,25,5.50
2016,11,24,11,26,5.40
2016,11,24,11,27,5.30
2016,11,24,11,28,5.30
2016,11,24,11,29,5.30
2016,11,24,11,30,5.30
2016,11,24,11,31,5.30
2016,11,24,11,32,5.30
2016,11,24,11,33,5.30
2016,11,24,11,34,5.30
2016,11,24,11,35,5.30
2016,11,24,11,36,5.30
2016,11,24,11,37,5.30
2016,11,24,11,38,5.30
2016,11,24,11,39,5.30
2016,11,24,11,40,5.20
2016,11,24,11,41,5.20
2016,11,24,11,42,5.20
2016,11,24,11,43,5.20
2016,11,24,11,44,5.20
2016,11,24,11,45,5.20
2016,11,24,11,46,5.20
2016,11,24,11,47,5.20
2016,11,24,11,48,5.20
2016,11,24,11,49,5.30
2016,11,24,11,50,5.30
2016,11,24,11,51,5.30
2016,11,24,11,52,5.30
2016,11,24,11,53,5.30
2016,11,24,11,54,5.30
2016,11,24,11,55,5.40
2016,11,24,11,56,5.40
2016,11,24,11,57,5.40
2016,11,24,11,58,5.50
2016,11,24,11,59,5.50
2016,11,24,12,00,5.50
2016,11,24,12,01,5.50
2016,11,24,12,02,5.60
2016,11,24,12,03,5.60
2016,11,24,12,04,5.60
2016,11,24,12,05,5.60
2016,11,24,12,06,5.60
2016,11,24,12,07,5.50
2016,11,24,12,08,5.50
2016,11,24,12,09,5.50
2016,11,24,12,10,5.50
2016,11,24,12,11,5.50
2016,11,24,12,12,5.50
2016,11,24,12,13,5.50
2016,11,24,12,14,5.50
2016,11,24,12,15,5.50
2016,11,24,12,16,5.60
2016,11,24,12,17,5.60
2016,11,24,12,18,5.60
2016,11,24,12,19,5.60
2016,11,24,12,20,5.60
2016,11,24,12,21,5.60
2016,11,24,12,22,5.60
2016,11,24,12,23,5.60
2016,11,24,12,24,5.60
2016,11,24,12,25,5.60
2016,11,24,12,26,5.60
2016,11,24,12,27,5.60
2016,11,24,12,28,5.60
2016,11,24,12,29,5.50
2016,11,24,12,30,5.50
2016,11,24,12,31,5.50
2016,11,24,12,32,5.50
2016,11,24,12,33,5.60
2016,11,24,12,34,5.60
2016,11,24,12,35,5.60
2016,11,24,12,36,5.60
2016,11,24,12,37,5.60
2016,11,24,12,38,5.60
2016,11,24,12,39,5.60
2016,11,24,12,40,5.70
2016,11,24,12,41,5.70
2016,11,24,12,42,5.80
2016,11,24,12,43,5.80
2016,11,24,12,44,5.90
2016,11,24,12,45,6.00
2016,11,24,12,46,6.10
2016,11,24,12,47,6.20
2016,11,24,12,48,6.20
2016,11,24,12,49,6.20
2016,11,24,12,50,6.20
2016,11,24,12,51,6.20
2016,11,24,12,52,6.20
2016,11,24,12,53,6.20
2016,11,24,12,54,6.20
2016,11,24,12,55,6.20
2016,11,24,12,56,6.20
2016,11,24,12,57,6.20
2016,11,24,12,58,6.20
2016,11,24,12,59,6.20
2016,11,24,13,00,6.20
2016,11,24,13,01,6.10
2016,11,24,13,02,6.00
2016,11,24,13,03,5.90
2016,11,24,13,04,5.80
2016,11,24,13,05,5.70
2016,11,24,13,06,5.70
2016,11,24,13,07,5.70
2016,11,24,13,08,5.60
2016,11,24,13,09,5.60
2016,11,24,13,10,5.60
2016,11,24,13,11,5.50
2016,11,24,13,12,5.40
2016,11,24,13,13,5.40
2016,11,24,13,14,5.30
2016,11,24,13,15,5.30
2016,11,24,13,16,5.20
2016,11,24,13,17,5.20
2016,11,24,13,18,5.20
2016,11,24,13,19,5.20
2016,11,24,13,20,5.20
2016,11,24,13,21,5.20
2016,11,24,13,22,5.20
2016,11,24,13,23,5.20
2016,11,24,13,24,5.20
2016,11,24,13,25,5.20
2016,11,24,13,26,5.30
2016,11,24,13,27,5.30
2016,11,24,13,28,5.30
2016,11,24,13,29,5.30
2016,11,24,13,30,5.30
2016,11,24,13,31,5.30
2016,11,24,13,32,5.20
2016,11,24,13,33,5.20
2016,11,24,13,34,5.20
2016,11,24,13,35,5.30
2016,11,24,13,36,5.30
2016,11,24,13,37,5.30
2016,11,24,13,38,5.40
2016,11,24,13,39,5.40
2016,11,24,13,40,5.40
2016,11,24,13,41,5.40
2016,11,24,13,42,5.40
2016,11,24,13,43,5.40
2016,11,24,13,44,5.30
2016,11,24,13,45,5.30
2016,11,24,13,46,5.20
2016,11,24,13,47,5.20
2016,11,24,13,48,5.20
2016,11,24,13,49,5.20
2016,11,24,13,50,5.10
2016,11,24,13,51,5.10
2016,11,24,13,52,5.10
2016,11,24,13,53,5.10
2016,11,24,13,54,5.10
2016,11,24,13,55,5.10
2016,11,24,13,56,5.10
2016,11,24,13,57,5.10
2016,11,24,13,58,5.10
2016,11,24,13,59,5.10
2016,11,24,14,00,5.10
2016,11,24,14,01,5.10
2016,11,24,14,02,5.10
2016,11,24,14,03,5.10
2016,11,24,14,04,5.20
2016,11,24,14,05,5.20
2016,11,24,14,06,5.20
2016,11,24,14,07,5.20
2016,11,24,14,08,5.20
2016,11,24,14,09,5.20
2016,11,24,14,10,5.30
2016,11,24,14,11,5.30
2016,11,24,14,12,5.30
2016,11,24,14,13,5.30
2016,11,24,14,14,5.30
2016,11,24,14,15,5.30
2016,11,24,14,16,5.30
2016,11,24,14,17,5.30
2016,11,24,14,18,5.30
2016,11,24,14,19,5.30
2016,11,24,14,20,5.30
2016,11,24,14,21,5.30
2016,11,24,14,22,5.30
2016,11,24,14,23,5.30
2016,11,24,14,24,5.30
2016,11,24,14,25,5.30
2016,11,24,14,26,5.20
2016,11,24,14,27,5.20
2016,11,24,14,28,5.20
2016,11,24,14,29,5.20
2016,11,24,14,30,5.20
2016,11,24,14,31,5.20
2016,11,24,14,32,5.20
2016,11,24,14,33,5.20
2016,11,24,14,34,5.20
2016,11,24,14,35,5.20
2016,11,24,14,36,5.20
2016,11,24,14,37,5.20
2016,11,24,14,38,5.20
2016,11,24,14,39,5.20
2016,11,24,14,40,5.20
2016,11,24,14,41,5.20
2016,11,24,14,42,5.20
2016,11,24,14,43,5.20
2016,11,24,14,44,5.20
2016,11,24,14,45,5.20
2016,11,24,14,46,5.20
2016,11,24,14,47,5.20
2016,11,24,14,48,5.20
2016,11,24,14,49,5.20
2016,11,24,14,50,5.20
2016,11,24,14,51,5.20
2016,11,24,14,52,5.20
2016,11,24,14,53,5.20
2016,11,24,14,54,5.20
2016,11,24,14,55,5.20
2016,11,24,14,56,5.20
2016,11,24,14,57,5.20
2016,11,24,14,58,5.30
2016,11,24,14,59,5.30
2016,11,24,15,00,5.30
2016,11,24,15,01,5.40
2016,11,24,15,02,5.40
2016,11,24,15,03,5.40
2016,11,24,15,04,5.40
2016,11,24,15,05,5.40
2016,11,24,15,06,5.40
2016,11,24,15,07,5.50
2016,11,24,15,08,5.50
2016,11,24,15,09,5.50
2016,11,24,15,10,5.60
2016,11,24,15,11,5.60
2016,11,24,15,12,5.60
2016,11,24,15,13,5.60
2016,11,24,15,14,5.60
2016,11,24,15,15,5.60
2016,11,24,15,16,5.60
2016,11,24,15,17,5.60
2016,11,24,15,18,5.60
2016,11,24,15,19,5.60
2016,11,24,15,20,5.60
2016,11,24,15,21,5.60
2016,11,24,15,22,5.70
2016,11,24,15,23,5.70
2016,11,24,15,24,5.70
2016,11,24,15,25,5.70
2016,11,24,15,26,5.70
2016,11,24,15,27,5.70
2016,11,24,15,28,5.70
2016,11,24,15,29,5.80
2016,11,24,15,30,5.80
2016,11,24,15,31,5.90
2016,11,24,15,32,6.00
2016,11,24,15,33,6.00
2016,11,24,15,34,6.10
2016,11,24,15,35,6.20
2016,11,24,15,36,6.20
2016,11,24,15,37,6.30
2016,11,24,15,38,6.30
2016,11,24,15,39,6.30
2016,11,24,15,40,6.40
2016,11,24,15,41,6.40
2016,11,24,15,42,6.40
2016,11,24,15,43,6.40
2016,11,24,15,44,6.50
2016,11,24,15,45,6.50
2016,11,24,15,46,6.50
2016,11,24,15,47,6.60
2016,11,24,15,48,6.60
2016,11,24,15,49,6.60
2016,11,24,15,50,6.60
2016,11,24,15,51,6.60
2016,11,24,15,52,6.60
2016,11,24,15,53,6.60
2016,11,24,15,54,6.60
2016,11,24,15,55,6.60
2016,11,24,15,56,6.60
2016,11,24,15,57,6.60
2016,11,24,15,58,6.60
2016,11,24,15,59,6.50
2016,11,24,16,00,6.50
2016,11,24,16,01,6.50
2016,11,24,16,02,6.40
2016,11,24,16,03,6.40
2016,11,24,16,04,6.40
2016,11,24,16,05,6.40
2016,11,24,16,06,6.40
2016,11,24,16,07,6.40
2016,11,24,16,08,6.40
2016,11,24,16,09,6.40
2016,11,24,16,10,6.30
2016,11,24,16,11,6.30
2016,11,24,16,12,6.30
2016,11,24,16,13,6.30
2016,11,24,16,14,6.30
2016,11,24,16,15,6.30
2016,11,24,16,16,6.30
2016,11,24,16,17,6.30
2016,11,24,16,18,6.30
2016,11,24,16,19,6.30
2016,11,24,16,20,6.40
2016,11,24,16,21,6.40
2016,11,24,16,22,6.40
2016,11,24,16,23,6.50
2016,11,24,16,24,6.50
2016,11,24,16,25,6.50
2016,11,24,16,26,6.50
2016,11,24,16,27,6.50
2016,11,24,16,28,6.50
2016,11,24,16,29,6.50
2016,11,24,16,30,6.50
2016,11,24,16,31,6.50
2016,11,24,16,32,6.40
2016,11,24,16,33,6.40
2016,11,24,16,34,6.50
2016,11,24,16,35,6.40
2016,11,24,16,36,6.40
2016,11,24,16,37,6.40
2016,11,24,16,38,6.40
2016,11,24,16,39,6.40
2016,11,24,16,40,6.40
2016,11,24,16,41,6.40
2016,11,24,16,42,6.40
2016,11,24,16,43,6.30
2016,11,24,16,44,6.30
2016,11,24,16,45,6.30
2016,11,24,16,46,6.30
2016,11,24,16,47,6.30
2016,11,24,16,48,6.30
2016,11,24,16,49,6.30
2016,11,24,16,50,6.30
2016,11,24,16,51,6.30
2016,11,24,16,52,6.30
2016,11,24,16,53,6.30
2016,11,24,16,54,6.30
2016,11,24,16,55,6.30
2016,11,24,16,56,6.30
2016,11,24,16,57,6.30
2016,11,24,16,58,6.30
2016,11,24,16,59,6.30
2016,11,24,17,00,6.30
2016,11,24,17,01,6.30
2016,11,24,17,02,6.30
2016,11,24,17,03,6.30
2016,11,24,17,04,6.30
2016,11,24,17,05,6.30
2016,11,24,17,06,6.30
2016,11,24,17,07,6.30
2016,11,24,17,08,6.30
2016,11,24,17,09,6.30
2016,11,24,17,10,6.30
2016,11,24,17,11,6.30
2016,11,24,17,12,6.30
2016,11,24,17,13,6.30
2016,11,24,17,14,6.40
2016,11,24,17,15,6.40
2016,11,24,17,16,6.40
2016,11,24,17,17,6.50
2016,11,24,17,18,6.50
2016,11,24,17,19,6.50
2016,11,24,17,20,6.50
2016,11,24,17,21,6.50
2016,11,24,17,22,6.50
2016,11,24,17,23,6.60
2016,11,24,17,24,6.50
2016,11,24,17,25,6.50
2016,11,24,17,26,6.50
2016,11,24,17,27,6.50
2016,11,24,17,28,6.60
2016,11,24,17,29,6.60
2016,11,24,17,30,6.60
2016,11,24,17,31,6.70
2016,11,24,17,32,6.70
2016,11,24,17,33,6.70
2016,11,24,17,34,6.70
2016,11,24,17,35,6.70
2016,11,24,17,36,6.70
2016,11,24,17,37,6.70
2016,11,24,17,38,6.70
2016,11,24,17,39,6.80
2016,11,24,17,40,6.80
2016,11,24,17,41,6.80
2016,11,24,17,42,6.80
2016,11,24,17,43,6.80
2016,11,24,17,44,6.80
2016,11,24,17,45,6.80
2016,11,24,17,46,6.80
2016,11,24,17,47,6.80
2016,11,24,17,48,6.80
2016,11,24,17,49,6.80
2016,11,24,17,50,6.80
2016,11,24,17,51,6.80
2016,11,24,17,52,6.80
2016,11,24,17,53,6.80
2016,11,24,17,54,6.80
2016,11,24,17,55,6.80
2016,11,24,17,56,6.80
2016,11,24,17,57,6.80
2016,11,24,17,58,6.80
2016,11,24,17,59,6.80
2016,11,24,18,00,6.80
2016,11,24,18,01,6.80
2016,11,24,18,02,6.80
2016,11,24,18,03,6.80
2016,11,24,18,04,6.80
2016,11,24,18,05,6.80
2016,11,24,18,06,6.80